DO7CRZ-11 Weather Reports


time (UTC)temp
C
wind
direction
speed
KPH
gust
KPH
rain 1hr
cm
rain 24hr
cm
rain mn
cm
humidity
%
barometer
mb
20260507203714 7 30 3.2 9.7 0.05 4.24 4.24 96 1016.8
20260507202716 7 38 6.4 14.5 0.05 4.24 4.24 96 1016.6
20260507195706 7 36 4.8 11.3 0.03 4.19 4.19 96 1016.3
20260507194712 7 28 1.6 6.4 0.00 4.19 4.19 96 1016.3
20260507193716 7 24 4.8 12.9 0.00 4.19 4.19 96 1016.1
20260507192708 7 46 3.2 11.3 0.00 4.19 4.19 96 1016.1
20260507191712 7 54 3.2 9.7 0.00 4.19 4.19 96 1015.9
20260507190715 7 35 4.8 12.9 0.00 4.19 4.19 95 1016.0
20260507185709 7 33 4.8 9.7 0.00 4.19 4.19 95 1015.7
20260507184713 8 17 6.4 16.1 0.00 4.19 4.19 95 1015.7
20260507183706 8 34 3.2 11.3 0.00 4.19 4.19 95 1015.5
20260507182709 8 29 3.2 9.7 0.00 4.19 4.19 95 1015.5
20260507180709 8 37 4.8 12.9 0.03 4.19 4.19 95 1015.3
20260507173709 8 33 3.2 6.4 0.03 4.19 4.19 95 1015.1
20260507172712 8 23 4.8 11.3 0.03 4.19 4.19 95 1015.0
20260507171709 8 30 4.8 9.7 0.03 4.19 4.19 95 1014.8
20260507170710 8 19 6.4 11.3 0.00 4.17 4.17 95 1014.8
20260507165714 8 15 6.4 11.3 0.00 4.17 4.17 95 1014.6
20260507164708 8 23 6.4 12.9 0.00 4.14 4.14 95 1014.6
20260507163712 8 6 6.4 11.3 0.00 4.14 4.14 95 1014.5
20260507161709 8 31 4.8 11.3 0.00 4.14 4.14 95 1014.3
20260507160713 8 36 4.8 6.4 0.00 4.14 4.14 95 1014.5
20260507153716 8 26 4.8 11.3 0.03 4.14 4.14 95 1014.4
20260507152709 9 13 6.4 12.9 0.03 4.14 4.14 95 1014.2
20260507151713 9 27 4.8 11.3 0.03 4.14 4.14 95 1014.1
20260507145714 9 23 4.8 11.3 0.08 4.14 4.14 95 1014.1
20260507144715 9 45 4.8 11.3 0.13 4.14 4.14 95 1013.9
20260507143712 9 30 3.2 11.3 0.13 4.14 4.14 94 1013.8
20260507142210 9 37 4.8 11.3 0.13 4.11 4.11 94 1014.0
20260507141214 9 37 3.2 11.3 0.15 4.11 4.11 94 1013.9
20260507140207 9 31 3.2 11.3 0.15 4.11 4.11 94 1013.9
20260507135211 9 39 1.6 4.8 0.08 4.04 4.04 94 1013.8
20260507134214 9 50 4.8 12.9 0.05 4.01 4.01 94 1013.8
20260507133208 9 36 4.8 16.1 0.05 3.99 3.99 94 1013.8
20260507132217 9 43 4.8 9.7 0.03 3.99 3.99 94 1013.6
20260507131214 9 42 3.2 11.3 0.03 3.96 3.96 94 1013.6
20260507130210 9 31 4.8 11.3 0.03 3.96 3.96 94 1013.5
20260507125211 9 48 3.2 9.7 0.05 3.96 3.96 94 1013.5
20260507124214 9 51 6.4 14.5 0.05 3.96 3.96 94 1013.4
20260507123208 10 47 6.4 12.9 0.08 3.96 3.96 94 1013.3
20260507122213 10 26 1.6 6.4 0.08 3.96 3.96 94 1013.2
20260507121216 10 22 4.8 11.3 0.05 3.96 3.96 94 1013.1
20260507115211 9 49 3.2 6.4 0.03 3.91 3.91 94 1013.0
20260507114214 9 49 3.2 9.7 0.03 3.91 3.91 94 1013.0
20260507113212 9 49 6.4 11.3 0.00 3.89 3.89 94 1012.9
20260507112210 9 39 4.8 11.3 0.00 3.89 3.89 94 1012.8
20260507111215 9 43 4.8 11.3 0.00 3.89 3.89 94 1012.8
20260507110206 9 29 4.8 12.9 0.00 3.89 3.89 94 1012.8
20260507105217 9 39 6.4 11.3 0.00 3.89 3.89 94 1012.8
20260507104220 9 33 3.2 9.7 0.00 3.89 3.89 94 1012.6
20260507103208 9 38 6.4 16.1 0.00 3.89 3.89 94 1012.6
20260507102212 9 31 6.4 14.5 0.00 3.89 3.89 94 1012.5
20260507101213 9 22 6.4 12.9 0.03 3.89 3.89 94 1012.5
20260507100206 9 58 6.4 12.9 0.08 3.89 3.89 94 1012.5
20260507095215 9 33 4.8 11.3 0.10 3.89 3.89 95 1012.4
20260507094218 9 35 6.4 14.5 0.10 3.89 3.89 95 1012.2
20260507093206 9 27 3.2 6.4 0.10 3.89 3.89 95 1012.2
20260507092210 9 50 1.6 3.2 0.10 3.89 3.89 95 1012.1
20260507090209 8 23 4.8 11.3 0.03 3.81 3.81 95 1011.8
20260507085212 8 28 4.8 12.9 0.00 3.78 3.78 95 1011.7
20260507083209 8 21 6.4 12.9 0.00 3.78 3.78 95 1011.4
20260507082215 8 16 3.2 11.3 0.00 3.78 3.78 94 1011.4
20260507081213 8 8 4.8 9.7 0.00 3.78 3.78 94 1011.3
20260507080208 8 63 1.6 4.8 0.00 3.78 3.78 94 1011.1
20260507075209 8 46 1.6 4.8 0.00 3.78 3.78 94 1011.1
20260507073207 8 20 3.2 9.7 0.00 3.78 3.78 94 1010.9
20260507072211 8 38 3.2 9.7 0.00 3.78 3.78 94 1010.8
20260507071212 8 56 3.2 6.4 0.00 3.78 3.78 94 1010.7
20260507070215 8 29 4.8 12.9 0.00 3.78 3.78 94 1010.6
20260507065213 8 28 3.2 9.7 0.00 3.78 3.78 94 1010.5
20260507064206 8 48 1.6 4.8 0.00 3.78 3.78 94 1010.5
20260507063210 8 39 3.2 9.7 0.00 3.78 3.78 94 1010.4
20260507062215 8 55 3.2 9.7 0.00 3.78 3.78 94 1010.4
20260507061215 8 71 3.2 9.7 0.00 3.78 3.78 94 1010.3
20260507060211 8 73 3.2 9.7 0.00 3.78 3.78 94 1010.2
20260507055213 8 84 1.6 4.8 0.03 3.78 3.78 94 1010.1
20260507053210 8 70 3.2 9.7 0.05 3.78 3.78 95 1009.7
20260507052214 8 69 3.2 6.4 0.10 3.78 3.78 95 1009.4
20260507051217 8 70 8.0 17.7 0.18 3.76 3.76 95 1009.6
20260507045210 8 45 3.2 9.7 0.23 3.76 3.76 95 1009.4
20260507044214 8 70 3.2 9.7 0.20 3.73 3.73 94 1009.4
20260507042211 8 45 1.6 4.8 0.15 3.66 3.66 94 1009.4
20260507041214 8 33 4.8 9.7 0.08 3.61 3.61 94 1009.2
20260507040207 8 358 0.0 4.8 0.08 3.58 3.58 94 1009.1
20260507035210 8 32 1.6 9.7 0.03 3.53 3.53 94 1009.0
20260507034213 8 35 3.2 9.7 0.03 3.53 3.53 94 1009.0
20260507033211 8 35 3.2 9.7 0.03 3.53 3.53 94 1008.9
20260507032212 8 22 3.2 9.7 0.03 3.53 3.53 94 1009.0
20260507030206 8 16 4.8 14.5 0.03 3.53 3.53 94 1008.9
20260507025210 8 17 6.4 12.9 0.03 3.51 3.51 94 1008.9
20260507024218 8 4 4.8 11.3 0.05 3.51 3.51 94 1008.8
20260507023207 9 340 6.4 12.9 0.15 3.51 3.51 94 1008.8
20260507022210 9 352 6.4 17.7 0.33 3.51 3.51 94 1008.6
20260507021213 9 4 6.4 12.9 0.43 3.51 3.51 94 1008.5
20260507020207 10 5 8.0 14.5 0.56 3.51 3.51 94 1008.5
20260507015210 10 14 8.0 20.9 0.66 3.48 3.48 94 1008.4
20260507014213 10 349 9.7 24.1 0.71 3.43 3.43 94 1008.1
20260507012210 10 310 3.2 6.4 0.74 3.17 3.17 93 1008.6
20260507010207 10 357 4.8 9.7 0.99 2.97 2.95 93 1007.9
20260507005210 10 14 4.8 9.7 1.04 2.84 2.84 93 1007.8
20260507004214 10 20 4.8 9.7 1.14 2.79 2.74 93 1007.7
20260507003207 10 2 3.2 11.3 1.12 2.59 2.54 93 1007.6
20260507002213 10 27 3.2 11.3 1.24 2.54 2.44 93 1007.6
20260507001216 10 23 6.4 14.5 1.17 2.31 2.16 93 1007.6
20260507000207 10 21 3.2 12.9 1.24 2.16 1.98 93 1007.7
20260506235210 10 45 4.8 11.3 1.40 2.01 1.80 93 1007.4
20260506234213 11 48 4.8 14.5 1.32 1.78 1.60 92 1007.5
20260506233211 11 41 4.8 11.3 1.19 1.60 1.40 92 1007.6
20260506232209 11 43 6.4 16.1 1.04 1.45 1.17 92 1007.6
20260506230216 11 36 4.8 12.9 0.71 1.70 0.71 90 1007.7
20260506225209 11 59 3.2 11.3 0.43 1.45 0.43 90 1007.7
20260506224212 11 36 3.2 11.3 0.28 1.32 0.28 90 1007.7
20260506222214 11 22 6.4 12.9 0.15 1.19 0.15 89 1007.7
20260506221211 12 353 6.4 12.9 0.05 1.12 0.05 88 1007.6
20260506220214 12 356 6.4 12.9 0.00 1.04 1.04 88 1007.5
20260506215208 12 6 6.4 14.5 0.00 1.04 1.04 88 1007.6
20260506214210 12 43 4.8 14.5 0.00 1.04 1.04 87 1007.4
20260506213214 12 51 4.8 20.9 0.00 1.04 1.04 87 1007.4
20260506212212 12 41 4.8 12.9 0.00 1.04 1.04 86 1007.4
20260506211211 12 26 3.2 11.3 0.00 1.04 1.04 86 1007.3
20260506210213 12 42 3.2 11.3 0.00 1.04 1.04 86 1007.3
20260506205207 12 41 8.0 16.1 0.00 1.04 1.04 86 1007.3
20260506204209 12 43 6.4 12.9 0.00 1.04 1.04 86 1007.5